Hourly Weather Kistapolca

Today, 29 July, Thursday

Time Temperature Precipitation Wind Pressure Humidity
00:00 +25°C° 0 mm 3 mps 751 mmHg 51%
01:00 +23°C° 0 mm 4 mps 751 mmHg 58%
02:00 +22°C° 0 mm 3 mps 751 mmHg 67%
03:00 +21°C° 0 mm 3 mps 751 mmHg 75%
04:00 +20°C° 0 mm 2 mps 751 mmHg 84%
05:00 +21°C° 0 mm 2 mps 752 mmHg 76%
06:00 +24°C° 0 mm 2 mps 752 mmHg 67%
07:00 +25°C° 0 mm 2 mps 753 mmHg 60%
08:00 +27°C° 0 mm 2 mps 753 mmHg 52%
09:00 +29°C° 0 mm 3 mps 753 mmHg 43%
10:00 +31°C° 0 mm 3 mps 753 mmHg 34%
11:00 +32°C° 0 mm 2 mps 752 mmHg 32%
12:00 +35°C° 0 mm 2 mps 752 mmHg 30%
13:00 +35°C° 0 mm 1 mps 752 mmHg 27%
14:00 +36°C° 0 mm 1 mps 751 mmHg 26%
15:00 +36°C° 0 mm 1 mps 750 mmHg 25%
16:00 +36°C° 0 mm 1 mps 750 mmHg 24%
17:00 +34°C° 0 mm 1 mps 750 mmHg 28%
18:00 +32°C° 0 mm 1 mps 750 mmHg 32%
19:00 +30°C° 0 mm 1 mps 750 mmHg 36%
20:00 +29°C° 0 mm 1 mps 750 mmHg 38%
21:00 +28°C° 0 mm 1 mps 750 mmHg 40%
22:00 +26°C° 0 mm 1 mps 750 mmHg 43%
23:00 +26°C° 0 mm 2 mps 750 mmHg 44%

Tomorrow, 30 July, Friday

Time Temperature Precipitation Wind Pressure Humidity
00:00 +25°C° 0 mm 2 mps 750 mmHg 46%
01:00 +24°C° 0 mm 2 mps 750 mmHg 48%
02:00 +24°C° 0 mm 2 mps 750 mmHg 48%
03:00 +23°C° 0 mm 2 mps 750 mmHg 49%
04:00 +23°C° 0 mm 2 mps 750 mmHg 49%
05:00 +25°C° 0 mm 2 mps 750 mmHg 45%
06:00 +26°C° 0 mm 2 mps 750 mmHg 41%
07:00 +28°C° 0 mm 2 mps 750 mmHg 37%
08:00 +30°C° 0 mm 2 mps 750 mmHg 34%
09:00 +34°C° 0 mm 3 mps 750 mmHg 30%
10:00 +36°C° 0 mm 3 mps 750 mmHg 26%
11:00 +37°C° 0 mm 2 mps 749 mmHg 25%
12:00 +38°C° 0 mm 2 mps 749 mmHg 23%
13:00 +40°C° 0 mm 2 mps 748 mmHg 22%
14:00 +40°C° 0 mm 2 mps 748 mmHg 21%
15:00 +40°C° 0 mm 2 mps 747 mmHg 20%
16:00 +40°C° 0 mm 2 mps 747 mmHg 20%
17:00 +38°C° 0 mm 2 mps 747 mmHg 25%
18:00 +35°C° 0 mm 2 mps 747 mmHg 31%
19:00 +31°C° 0 mm 2 mps 747 mmHg 37%
20:00 +30°C° 0 mm 2 mps 747 mmHg 40%
21:00 +28°C° 0 mm 1 mps 747 mmHg 43%
22:00 +27°C° 0 mm 1 mps 747 mmHg 46%
23:00 +26°C° 0 mm 1 mps 747 mmHg 48%

Day after tomorrow, 31 July, Saturday

Time Temperature Precipitation Wind Pressure Humidity
00:00 +26°C° 0 mm 2 mps 747 mmHg 49%
01:00 +25°C° 0 mm 2 mps 747 mmHg 51%
02:00 +25°C° 0 mm 2 mps 747 mmHg 52%
03:00 +24°C° 0 mm 2 mps 747 mmHg 54%
04:00 +24°C° 0 mm 2 mps 747 mmHg 55%
05:00 +25°C° 0 mm 2 mps 747 mmHg 51%
06:00 +27°C° 0 mm 2 mps 747 mmHg 46%
07:00 +29°C° 0 mm 1 mps 747 mmHg 42%
08:00 +31°C° 0 mm 2 mps 747 mmHg 37%
09:00 +35°C° 0 mm 3 mps 747 mmHg 32%
10:00 +37°C° 0 mm 3 mps 748 mmHg 27%
11:00 +38°C° 0 mm 4 mps 747 mmHg 25%
12:00 +40°C° 0 mm 4 mps 747 mmHg 23%
13:00 +41°C° 0 mm 4 mps 747 mmHg 21%
14:00 +41°C° 0 mm 4 mps 747 mmHg 21%
15:00 +41°C° 0 mm 5 mps 746 mmHg 22%
16:00 +41°C° 0 mm 5 mps 746 mmHg 22%
17:00 +37°C° 0 mm 5 mps 746 mmHg 28%
18:00 +35°C° 0 mm 5 mps 746 mmHg 34%
19:00 +33°C° 0 mm 4 mps 747 mmHg 39%
20:00 +29°C° 0 mm 4 mps 747 mmHg 47%
21:00 +27°C° 0 mm 3 mps 747 mmHg 55%
22:00 +24°C° 0 mm 2 mps 748 mmHg 63%
23:00 +24°C° 0 mm 2 mps 748 mmHg 66%

1 August, Sunday

Time Temperature Precipitation Wind Pressure Humidity
00:00 +23°C° 0 mm 2 mps 748 mmHg 68%
01:00 +21°C° 0 mm 2 mps 748 mmHg 71%
02:00 +21°C° 0 mm 2 mps 748 mmHg 71%
03:00 +20°C° 0 mm 2 mps 748 mmHg 72%
04:00 +20°C° 0 mm 3 mps 748 mmHg 73%
05:00 +22°C° 0 mm 3 mps 747 mmHg 66%
06:00 +25°C° 0 mm 3 mps 747 mmHg 60%
07:00 +27°C° 0 mm 3 mps 747 mmHg 53%
08:00 +29°C° 0 mm 2 mps 747 mmHg 47%
09:00 +31°C° 0 mm 2 mps 747 mmHg 40%
10:00 +34°C° 0 mm 2 mps 746 mmHg 34%
11:00 +37°C° 0 mm 3 mps 746 mmHg 28%
12:00 +40°C° 0 mm 4 mps 745 mmHg 23%
13:00 +42°C° 0 mm 4 mps 745 mmHg 17%
14:00 +41°C° 0.1 mm 4 mps 744 mmHg 22%
15:00 +39°C° 0.1 mm 5 mps 744 mmHg 27%
16:00 +36°C° 0.1 mm 5 mps 744 mmHg 32%
17:00 +34°C° 0 mm 4 mps 744 mmHg 35%
18:00 +33°C° 0 mm 3 mps 744 mmHg 37%
19:00 +30°C° 0 mm 2 mps 744 mmHg 39%
20:00 +28°C° 0.1 mm 2 mps 745 mmHg 49%
21:00 +26°C° 0.1 mm 3 mps 746 mmHg 60%
22:00 +22°C° 0.1 mm 4 mps 746 mmHg 70%
23:00 +21°C° 0 mm 4 mps 747 mmHg 75%

2 August, Monday

Time Temperature Precipitation Wind Pressure Humidity
00:00 +19°C° 0 mm 4 mps 748 mmHg 81%
01:00 +18°C° 0 mm 4 mps 748 mmHg 86%
02:00 +17°C° 0 mm 4 mps 749 mmHg 84%
03:00 +17°C° 0 mm 4 mps 749 mmHg 83%
04:00 +17°C° 0 mm 4 mps 749 mmHg 81%
05:00 +18°C° 0 mm 4 mps 750 mmHg 74%
06:00 +19°C° 0 mm 4 mps 750 mmHg 67%
07:00 +20°C° 0 mm 4 mps 751 mmHg 60%
08:00 +22°C° 0 mm 4 mps 751 mmHg 53%
09:00 +25°C° 0 mm 5 mps 751 mmHg 46%
10:00 +27°C° 0 mm 5 mps 752 mmHg 39%
11:00 +28°C° 0 mm 4 mps 751 mmHg 36%
12:00 +29°C° 0 mm 4 mps 751 mmHg 33%
13:00 +32°C° 0 mm 4 mps 751 mmHg 30%
14:00 +32°C° 0 mm 4 mps 751 mmHg 29%
15:00 +32°C° 0 mm 4 mps 751 mmHg 28%
16:00 +33°C° 0 mm 4 mps 750 mmHg 26%
17:00 +30°C° 0 mm 4 mps 751 mmHg 30%
18:00 +28°C° 0 mm 3 mps 751 mmHg 34%
19:00 +26°C° 0 mm 3 mps 751 mmHg 37%
20:00 +25°C° 0 mm 3 mps 751 mmHg 41%
21:00 +22°C° 0 mm 3 mps 752 mmHg 45%
22:00 +21°C° 0 mm 2 mps 752 mmHg 48%
23:00 +20°C° 0 mm 2 mps 753 mmHg 50%

3 August, Tuesday

Time Temperature Precipitation Wind Pressure Humidity
00:00 +20°C° 0 mm 2 mps 753 mmHg 52%
01:00 +20°C° 0 mm 1 mps 753 mmHg 53%
02:00 +20°C° 0 mm 1 mps 753 mmHg 53%
03:00 +21°C° 0 mm 1 mps 753 mmHg 52%
04:00 +21°C° 0 mm 1 mps 754 mmHg 52%
05:00 +22°C° 0 mm 1 mps 754 mmHg 50%
06:00 +23°C° 0 mm 1 mps 754 mmHg 48%
07:00 +23°C° 0 mm 1 mps 755 mmHg 46%
08:00 +26°C° 0 mm 2 mps 754 mmHg 40%
09:00 +28°C° 0 mm 2 mps 754 mmHg 35%
10:00 +30°C° 0 mm 3 mps 754 mmHg 30%
11:00 +31°C° 0 mm 3 mps 753 mmHg 28%
12:00 +34°C° 0 mm 3 mps 752 mmHg 25%
13:00 +35°C° 0 mm 3 mps 752 mmHg 23%
14:00 +35°C° 0 mm 3 mps 751 mmHg 22%
15:00 +36°C° 0 mm 3 mps 751 mmHg 21%
16:00 +36°C° 0 mm 2 mps 750 mmHg 20%
17:00 +34°C° 0 mm 2 mps 750 mmHg 23%
18:00 +31°C° 0 mm 2 mps 750 mmHg 26%
19:00 +29°C° 0 mm 2 mps 749 mmHg 30%
20:00 +27°C° 0 mm 2 mps 749 mmHg 34%
21:00 +26°C° 0 mm 2 mps 749 mmHg 39%
22:00 +24°C° 0 mm 2 mps 750 mmHg 43%
23:00 +23°C° 0 mm 2 mps 750 mmHg 45%
Show more